[[{"header":{"parameterUnit":"m.s-1","parameterCategory":1,"la1":30.2991,"la2":30.254,"lo1":-89.0895,"lo2":-89.0444,"dy":0.0017,"dx":0.0017,"nx":28,"ny":28,"refTime":"2024-07-15T21:00:00:Z","depth":0,"parameterNumber":2,"parameterNumberName":"U-component_of_WINDS"},"data":[0,0,0,0,0,0,0,0,0,0,0,0,0,0,0,0,0,0,0,0,0,0,0,0,0,0,0,0,0,0,0,0,0,0,0,0,0,0,0,0,0,0,0,0,0,0,0,0,0,0,0,0,0,0,0,0,0,0,3.3859,3.386,0,3.3992,3.3994,3.3995,3.3972,3.397,3.3967,3.3965,3.4101,3.4107,3.4112,0,0,0,0,0,0,0,0,0,0,0,0,0,3.3583,3.3588,3.3859,3.386,3.3862,3.3992,3.3994,3.3995,3.3972,3.397,3.3967,3.3964,3.4099,3.4106,3.4113,0,0,0,0,0,0,0,0,0,0,0,0,0,3.3708,3.359,3.3858,3.3866,3.3868,3.3991,3.3994,3.3996,3.3973,3.3969,3.3966,3.3963,3.4097,3.4105,3.4114,3.4237,0,0,3.414,3.4144,0,0,0,0,0,0,0,0,3.3701,3.3718,3.3863,3.3866,3.3868,3.3962,3.3946,3.4077,3.3974,3.3933,3.3965,3.3961,3.4057,3.4069,3.4102,3.4244,3.425,3.4141,3.4146,3.415,3.4152,0,0,0,0,0,0,0,3.3692,3.3712,3.3911,3.3866,3.3869,3.3862,3.3876,3.3971,3.4013,3.3936,3.3935,3.3951,3.4058,3.4093,3.4105,3.4252,3.4141,3.4148,3.4154,3.4157,3.45,3.4503,0,0,0,0,0,0,3.3681,3.3705,3.3907,3.3915,3.3774,3.387,3.3886,3.3935,3.4012,3.4021,3.3954,3.395,3.408,3.4095,3.4109,3.4258,3.415,3.4158,3.4163,3.4496,3.45,3.4505,0,0,0,0,0,0,3.3675,3.37,3.3902,3.381,3.3835,3.3879,3.3935,3.394,3.3975,3.4026,3.4033,3.3983,3.4078,3.4097,3.4205,3.4262,3.4162,3.417,3.4491,3.4497,3.4502,3.4556,0,0,0,0,0,0,3.3668,3.3698,3.3746,3.3811,3.384,3.3996,3.3938,3.3945,3.399,3.3986,3.4054,3.4062,3.4077,3.4192,3.4214,3.4272,3.4177,3.4486,3.4494,3.4501,3.4549,3.4563,3.4575,0,0,0,0,0,3.3658,3.3756,3.3748,3.3773,3.3901,3.3999,3.4016,3.4031,3.3995,3.4043,3.4075,3.406,3.4253,3.4204,3.4228,3.4289,3.4483,3.4492,3.45,3.4544,3.456,3.4574,0,0,0,0,0,0,3.3696,3.3764,3.3757,3.3879,3.3933,3.3995,3.4056,3.4049,3.4115,3.4108,3.4123,3.4139,3.4248,3.428,3.4224,3.4412,3.4362,3.4376,3.4387,3.4404,3.4416,3.4405,3.4184,0,0,0,0,0,3.3718,3.3793,3.3849,3.3951,3.3979,3.4013,3.4056,3.4063,3.412,3.4143,3.4183,3.4239,3.4312,3.436,3.443,3.4554,3.4568,3.4608,3.4621,3.4631,3.4642,3.4709,3.4727,3.4533,3.4533,3.4533,0,0,3.3765,3.3812,3.3858,3.396,3.4003,3.4079,3.4033,3.4115,3.4171,3.4156,3.426,3.4291,3.4354,3.4471,3.4524,3.45,3.4699,3.4642,3.465,3.4656,3.4719,3.4738,3.4754,3.4539,3.4538,3.4537,0,0,3.389,3.3933,3.4022,3.4066,3.4132,3.4154,3.4176,3.4239,3.4259,3.4364,3.4353,3.442,3.4546,3.4591,3.463,3.477,3.4758,3.4793,3.4858,3.4922,3.4938,3.4951,3.4999,3.5017,3.4804,3.4804,3.4804,0,3.394,3.4054,3.4069,3.4153,3.4197,3.4186,3.4276,3.4318,3.4403,3.4433,3.4406,3.4562,3.4604,3.473,3.4764,3.4797,3.4821,3.4784,3.4934,3.4948,3.4961,3.5007,3.5025,3.4808,3.4808,3.4807,3.4807,0,3.4112,3.4192,3.4256,3.4338,3.4389,3.4475,3.4502,3.4553,3.4555,3.4579,3.4685,3.4735,3.4814,3.4845,3.4848,3.4971,3.4954,3.4931,3.4881,3.4983,3.5026,3.5044,3.4813,3.4812,3.4811,3.481,0,0,3.4264,3.4352,3.4376,3.4412,3.4483,3.4545,3.463,3.4707,3.4749,3.4808,3.4879,3.4985,3.4963,3.5008,3.5016,3.5073,3.5178,3.5042,3.5044,3.5064,3.5314,3.533,3.5351,3.5171,3.5175,3.5178,3.5308,0,3.4394,3.4544,3.4559,3.4694,3.4766,3.4757,3.4831,3.4882,3.4907,3.4972,3.4999,3.5074,3.504,3.5067,3.5123,3.5154,3.5229,3.5145,3.5236,3.5239,3.5219,3.5374,3.5392,3.5513,3.5326,3.5329,3.5331,0,3.4566,3.4629,3.477,3.483,3.4861,3.4927,3.4998,3.5061,3.5118,3.5132,3.5182,3.5182,3.5269,3.5216,3.5335,3.5278,3.5316,3.5337,3.5342,3.535,3.529,3.5384,3.5552,3.5569,3.5358,3.5356,3.5354,0,3.466,3.4781,3.488,3.4912,3.4985,3.5031,3.5064,3.5118,3.5162,3.5225,3.5254,3.5325,3.5364,3.5419,3.5438,3.5399,3.5556,3.5505,3.5569,3.5568,3.5601,3.5599,3.5776,3.5629,3.5628,3.5628,3.5628,0,3.4803,3.4889,3.4924,3.4985,3.5081,3.5097,3.5192,3.5221,3.5269,3.5335,3.5332,3.5394,3.5417,3.5482,3.5498,3.5593,3.5611,3.5624,3.5626,3.5623,3.5621,3.5647,3.5639,3.5633,3.5632,3.5631,3.563,0,3.4924,3.4951,3.5058,3.5118,3.5135,3.5203,3.5253,3.5312,3.5336,3.5419,3.544,3.5478,3.5554,3.5579,3.5672,3.5683,3.5793,3.5789,3.5773,3.5773,3.5834,3.5828,3.6033,3.606,3.5897,3.5899,3.59,0,3.5013,3.5079,3.5145,3.5189,3.5223,3.5294,3.5339,3.5358,3.5405,3.5475,3.5525,3.5601,3.5662,3.5785,3.582,3.5891,3.5888,3.5955,3.5899,3.5892,3.5887,3.5882,3.5888,3.5965,3.5967,3.5968,3.5969,0,3.5166,3.5176,3.5242,3.5312,3.5366,3.5423,3.5477,3.5513,3.5539,3.5593,3.5671,3.5719,3.5813,3.5888,3.596,3.5992,3.5985,3.5987,3.6005,3.6001,3.5989,3.5995,3.58,3.5982,3.5981,3.598,3.5979,3.5979,3.5273,3.533,3.5385,3.5458,3.5501,3.5552,3.5609,3.564,3.5705,3.5783,3.579,3.5874,3.5928,3.6024,3.606,3.6125,3.6106,3.6133,3.6139,3.6145,3.6149,3.598,3.6139,3.6138,3.6138,3.6138,3.6138,0,3.5425,3.5459,3.5526,3.5602,3.5659,3.5648,3.5707,3.5755,3.5829,3.588,3.5941,3.603,3.6102,3.6143,3.6215,3.6259,3.6257,3.6277,3.6273,3.628,3.6163,3.6139,3.6277,3.6277,3.6277,3.6277,3.6277,3.6277,3.551,3.5606,3.5622,3.5739,3.5773,3.5855,3.5889,3.5936,3.5976,3.6076,3.6136,3.6162,3.6208,3.6284,3.6349,3.6359,3.6385,3.6406,3.6414,3.6303,3.6289,3.6275,3.6253,3.6412,3.6413,3.6526,3.6527,3.6528]},{"header":{"parameterUnit":"m.s-1","parameterCategory":1,"la1":30.2991,"la2":30.254,"lo1":-89.0895,"lo2":-89.0444,"dy":0.0017,"dx":0.0017,"nx":28,"ny":28,"refTime":"2024-07-15T21:00:00:Z","depth":0,"parameterNumber":3,"parameterNumberName":"V-component_of_WINDS"},"data":[0,0,0,0,0,0,0,0,0,0,0,0,0,0,0,0,0,0,0,0,0,0,0,0,0,0,0,0,0,0,0,0,0,0,0,0,0,0,0,0,0,0,0,0,0,0,0,0,0,0,0,0,0,0,0,0,0,0,0.2578,0.2578,0,0.2563,0.2563,0.2563,0.254,0.254,0.254,0.2539,0.2524,0.2524,0.2524,0,0,0,0,0,0,0,0,0,0,0,0,0,0.2587,0.2587,0.2578,0.2578,0.2578,0.2563,0.2563,0.2563,0.254,0.254,0.2539,0.2539,0.2524,0.2524,0.2524,0,0,0,0,0,0,0,0,0,0,0,0,0,0.2579,0.2587,0.2578,0.2565,0.2563,0.2563,0.2563,0.2563,0.254,0.254,0.2539,0.2539,0.2524,0.2524,0.2524,0.2536,0,0,0.2524,0.2524,0,0,0,0,0,0,0,0,0.2579,0.2578,0.2567,0.2566,0.2564,0.2553,0.2561,0.2554,0.2541,0.2549,0.2539,0.2538,0.2534,0.2533,0.2532,0.2535,0.2535,0.2524,0.2524,0.2524,0.2524,0,0,0,0,0,0,0,0.258,0.2579,0.2572,0.2567,0.2565,0.2559,0.2558,0.2559,0.2545,0.2548,0.2547,0.2545,0.2533,0.2532,0.2531,0.2534,0.2524,0.2524,0.2524,0.2524,0.2546,0.2547,0,0,0,0,0,0,0.2582,0.2579,0.2573,0.2572,0.257,0.256,0.2558,0.2557,0.2545,0.2543,0.2546,0.2544,0.2532,0.2532,0.2531,0.2544,0.2524,0.2524,0.2524,0.2546,0.2546,0.2547,0,0,0,0,0,0,0.2583,0.2582,0.2573,0.2575,0.2574,0.256,0.256,0.2557,0.2556,0.2543,0.2541,0.2547,0.2532,0.2531,0.2535,0.2543,0.2524,0.2524,0.2545,0.2546,0.2547,0.257,0,0,0,0,0,0,0.2583,0.2582,0.2587,0.2575,0.2574,0.2578,0.256,0.2557,0.2556,0.2554,0.2544,0.2541,0.2531,0.2535,0.2535,0.2543,0.2524,0.2544,0.2545,0.2546,0.2568,0.2571,0.2574,0,0,0,0,0,0.2583,0.2594,0.2587,0.2586,0.2579,0.2578,0.2577,0.2565,0.2556,0.2561,0.2553,0.2542,0.2542,0.2536,0.2535,0.2543,0.2544,0.2545,0.2546,0.2567,0.2571,0.2574,0,0,0,0,0,0,0.2607,0.2592,0.2584,0.2592,0.2586,0.2574,0.2579,0.257,0.2567,0.2565,0.255,0.2548,0.2554,0.2549,0.2542,0.2554,0.2541,0.2542,0.2557,0.256,0.2563,0.2565,0.2524,0,0,0,0,0,0.2613,0.2613,0.26,0.2608,0.2606,0.2593,0.2592,0.2583,0.2577,0.2575,0.2567,0.2562,0.256,0.256,0.2558,0.2567,0.2565,0.2572,0.2575,0.2578,0.2579,0.2583,0.2587,0.2552,0.2552,0.2552,0,0,0.2625,0.2617,0.2618,0.2612,0.2607,0.2608,0.2591,0.2593,0.2594,0.2575,0.2579,0.2573,0.2565,0.2572,0.2574,0.2568,0.2588,0.2579,0.2581,0.2582,0.2585,0.2588,0.2591,0.2552,0.2552,0.2552,0,0,0.2648,0.2642,0.2648,0.2643,0.2635,0.2626,0.2628,0.2617,0.2612,0.2615,0.2601,0.2602,0.26,0.2595,0.2593,0.2613,0.2603,0.2613,0.2629,0.2633,0.2636,0.2638,0.2645,0.2648,0.2615,0.2615,0.2615,0,0.2665,0.2665,0.2652,0.2654,0.2652,0.2635,0.2641,0.2637,0.2629,0.2627,0.262,0.2617,0.2611,0.2616,0.2621,0.262,0.2621,0.2615,0.2636,0.2638,0.2641,0.2647,0.265,0.2616,0.2616,0.2616,0.2616,0,0.2686,0.2687,0.2692,0.2685,0.2683,0.2687,0.2674,0.2674,0.2665,0.2657,0.266,0.2652,0.2648,0.2649,0.264,0.2652,0.2649,0.2639,0.2626,0.2645,0.2652,0.2654,0.2618,0.2617,0.2617,0.2617,0,0,0.2724,0.2709,0.2711,0.2707,0.2697,0.2698,0.27,0.2696,0.2697,0.2691,0.2694,0.2692,0.2683,0.268,0.2671,0.2674,0.2691,0.2664,0.2664,0.267,0.2704,0.2712,0.2715,0.2684,0.2684,0.2685,0.2705,0,0.2746,0.275,0.2738,0.2745,0.2746,0.2729,0.2732,0.2726,0.2718,0.2717,0.2709,0.2708,0.2696,0.2694,0.2697,0.2689,0.2698,0.2687,0.2686,0.2686,0.2689,0.2718,0.2727,0.2746,0.2707,0.2708,0.2708,0,0.2772,0.2768,0.2775,0.2764,0.2764,0.2766,0.2761,0.2761,0.2753,0.2748,0.2744,0.2733,0.2735,0.2722,0.2725,0.2718,0.2716,0.2712,0.2712,0.2712,0.2699,0.2719,0.2752,0.2755,0.2712,0.2711,0.2711,0,0.2799,0.2795,0.2799,0.2797,0.2784,0.2786,0.2781,0.2773,0.2771,0.2767,0.2765,0.2761,0.2759,0.2756,0.2744,0.2736,0.2748,0.2735,0.2744,0.2744,0.2747,0.2748,0.278,0.2746,0.2746,0.2746,0.2746,0,0.2825,0.283,0.2812,0.2814,0.2819,0.2805,0.2811,0.2804,0.2796,0.2797,0.2782,0.2784,0.2767,0.2767,0.2757,0.2761,0.276,0.2755,0.2753,0.2757,0.2757,0.2756,0.2755,0.2747,0.2747,0.2746,0.2746,0,0.2857,0.2844,0.2848,0.2835,0.2832,0.2836,0.2825,0.2827,0.2818,0.282,0.2819,0.2805,0.2803,0.2791,0.2787,0.278,0.2787,0.2782,0.279,0.2788,0.2798,0.2797,0.2832,0.2835,0.2799,0.2799,0.2799,0,0.2874,0.2878,0.2865,0.2864,0.286,0.2859,0.2857,0.2843,0.2841,0.2833,0.2835,0.2832,0.2829,0.2827,0.2817,0.2813,0.2808,0.282,0.2807,0.2811,0.2808,0.2808,0.2808,0.2823,0.2823,0.2824,0.2824,0,0.2906,0.29,0.2897,0.2893,0.2891,0.2887,0.2881,0.2882,0.2866,0.2865,0.2863,0.286,0.2855,0.2852,0.2847,0.2841,0.283,0.2828,0.283,0.2834,0.2839,0.2837,0.2798,0.2827,0.2827,0.2827,0.2827,0.2826,0.2931,0.2934,0.2925,0.2923,0.2917,0.2913,0.2914,0.2905,0.2903,0.2898,0.2889,0.2888,0.288,0.2871,0.2867,0.2865,0.2859,0.2862,0.2863,0.2864,0.2866,0.2839,0.2864,0.2864,0.2864,0.2864,0.2864,0,0.2963,0.2956,0.2954,0.2947,0.2946,0.2935,0.2928,0.2928,0.2927,0.292,0.2917,0.2915,0.2912,0.2901,0.2896,0.2898,0.2892,0.2897,0.2897,0.2896,0.2872,0.2871,0.2901,0.2901,0.2901,0.2901,0.2901,0.2901,0.2979,0.2982,0.2975,0.2975,0.2969,0.2968,0.2965,0.296,0.2955,0.2953,0.295,0.2943,0.2934,0.2929,0.2926,0.2923,0.2922,0.2928,0.2924,0.2901,0.2898,0.2894,0.2893,0.2928,0.2928,0.2948,0.2948,0.2948]}]]